Regional Weather Roundup
Issued by NWS

Home | Current Version | Previous Version | Graphics & Text | Print | Product List | Glossary On
Versions: 1 2 3 4 5 6 7 8 9 10 11 12 13 14 15 16 17 18 19 20 21 22 23 24 25 26 27
000
ASUS45 KTFX 242310
RWRMT
MONTANA REGIONAL WEATHER ROUNDUP
NATIONAL WEATHER SERVICE GREAT FALLS MT
500 PM MDT SAT JUN 24 2017

NOTE: "FAIR" INDICATES FEW OR NO CLOUDS BELOW 12000 FEET WITH NO
SIGNIFICANT WEATHER AND/OR OBSTRUCTIONS TO VISIBILITY.

MTZ001>007-043-250000-
WEST OF THE DIVIDE

CITY           SKY/WX    TMP DP  RH WIND       PRES   REMARKS
KALISPELL      SUNNY     80  41  24 SW5       30.22F
MISSOULA       SUNNY     83  36  18 N9        30.21F
BUTTE          MOSUNNY   73  31  21 CALM      30.31S
MULLAN PASS    MOSUNNY   70  34  26 VRB3      30.36F
ANACONDA         N/A     73  39  29 N9        30.29S
DEER LODGE       N/A     73  34  23 N6        30.30S
EUREKA           N/A     81  32  17 MISG      30.22S
HAMILTON         N/A     79  36  21 N9        30.21F
$$

MTZ008-052>055-250000-
SOUTHWEST MONTANA

CITY           SKY/WX    TMP DP  RH WIND       PRES   REMARKS
BOZEMAN        SUNNY     75  26  16 NW7       30.28F
DILLON         SUNNY     76  34  21 NE10      30.27F
W YELLOWSTONE  SUNNY     70  30  23 NW8       30.34R
ENNIS          SUNNY     73  34  23 N8G17     30.34S
THREE FORKS      N/A     76  36  23 S2        30.24S
$$

MTZ009-010-012-014-046-048-049-054-250000-
EAST SLOPES AND CENTRAL MONTANA

CITY           SKY/WX    TMP DP  RH WIND       PRES   REMARKS
CUT BANK       CLOUDY    67  39  35 CALM      30.33R
GREAT FALLS    MOSUNNY   70  36  28 E14       30.29S
MALMSTROM AFB  MOSUNNY   72  37  28 SE7       30.29F
HELENA         SUNNY     79  34  19 N6        30.24F
CHOTEAU          N/A     72  39  30 NE14      30.32S
$$

MTZ011-013-016-021-045-047-050-051-250000-
NORTH CENTRAL MONTANA

CITY           SKY/WX    TMP DP  RH WIND       PRES   REMARKS
HAVRE          CLOUDY    69  39  33 N21G31    30.31R
LEWISTOWN      PTSUNNY   71  37  28 N16G22    30.33S
N BAR RANCH    PTSUNNY   66  34  30 N13       30.36S
CHINOOK          N/A     72  34  25 CALM      30.29S
FORT BENTON      N/A     73  39  29 MISG      30.30F
$$

MTZ017>020-022>027-061-062-250000-
NORTHEAST MONTANA

CITY           SKY/WX    TMP DP  RH WIND       PRES   REMARKS
GLASGOW        PTSUNNY   74  31  20 MISG      30.27S
JORDAN           N/A     73  29  19 E8        30.28S
SIDNEY         PTSUNNY   67  33  28 N17       30.28S
WOLF POINT     PTSUNNY   75  29  18 N12       30.26F
MALTA          MOSUNNY   72  30  21 NW8       30.27S
PLENTYWOOD       N/A     66  34  30 NW10G16   30.28S
POPLAR           N/A     70  34  26 N8        30.28S
$$

MTZ028>42-056>058-250000-
SOUTHCENTRAL AND SOUTHEAST MONTANA

CITY           SKY/WX    TMP DP  RH WIND       PRES   REMARKS
BAKER          MOSUNNY   67  30  25 NW10      30.29S
BILLINGS       MOSUNNY   75  32  20 NE9       30.28S
LIVINGSTON     SUNNY     75  37  25 MISG      30.28S
MILES CITY     SUNNY     75  25  15 N14G25    30.27S
BIG TIMBER     SUNNY     73  36  25 E6        30.31F
FORSYTH          N/A     72  32  23 N9        30.27S
ROUNDUP          N/A     71  32  23 N8        30.20S
$$

REGIONAL REPORTS...DAKOTAS

CITY           SKY/WX    TMP DP  RH WIND       PRES   REMARKS
WILLISTON      PTSUNNY   68  34  28 N16       30.28S
MINOT          PTSUNNY   61  41  47 N14G24    30.24S
DICKINSON      SUNNY     65  29  25 N21G28    30.26S
BEACH            N/A     66  28  24 N18G26    30.32S
CROSBY           N/A     64  36  34 N14G22    30.27S
TIOGA            N/A     63  34  34 N21G28    30.29R
WATFORD CITY     N/A     64  37  36 N17       30.27F
BISMARCK       PTSUNNY   65  40  39 N17       30.23S
GRAND FORKS    LGT RAIN  54  50  86 NW17G26   30.11R
FARGO          CLOUDY    60  48  64 N15G24    30.09R
BUFFALO SD       N/A     71  28  20 N18       30.21S
RAPID CITY     SUNNY     75  30  19 N18G30    30.25S
$$

REGIONAL REPORTS...WYOMING/IDAHO/WASHINGTON

CITY           SKY/WX    TMP DP  RH WIND       PRES   REMARKS
GILLETTE       MOSUNNY   73  27  18 NW14G23   30.29F
SHERIDAN       PTSUNNY   73  36  25 NW6       30.30F
BUFFALO WY     MOSUNNY   68  36  30 N7        30.34F
CODY           SUNNY     72  35  25 N9        30.31S
YELLOWSTONE LA   N/A     60  33  36 CALM      30.42S
IDAHO FALLS    MOSUNNY   80  44  27 NW7       30.23F
SALMON         SUNNY     81  32  17 N5        30.18R
BOISE          SUNNY     87  27  11 NW9       30.12F
SPOKANE        MOSUNNY   85  30  13 E7        30.19F
$$

REGIONAL REPORTS...ALBERTA

CITY           SKY/WX    TMP DP  RH WIND       PRES   REMARKS
EDMONTON       MOSUNNY   70  48  46 NW3       30.26S
CALGARY        MOSUNNY   70  37  30 VRB8      30.32F
LETHBRIDGE     PTSUNNY   68  45  42 E7        30.32S
MEDICINE HAT   MOSUNNY   70  45  40 S9G17     30.30S
MILK RIVER       N/A     68  46  45 NE9         N/A
$$

REGIONAL REPORTS...SASKATCHEWAN

CITY           SKY/WX    TMP DP  RH WIND       PRES   REMARKS
SWIFT CURRENT  PTSUNNY   68  41  37 NW12      30.26F
REGINA         PTSUNNY   66  37  34 NW15      30.24S
SASKATOON      MOSUNNY   63  48  59 NE5       30.25S
CYPRESS HILLS    N/A     64  37  36 NW6         N/A
VAL MARIE        N/A     72  28  20 W10         N/A
ROCKGLEN         N/A     64  34  32 N7          N/A
ASSINIBOIA       N/A     63  45  51 N23G32      N/A
$$




USA.gov is the U.S. government's official web portal to all federal, state and local government web resources and services.